Location: Sungai Laei
(2.6000°N, 113.7167°E)
Time: 10:22:45
(UTC+00:00)

Okean-O - Pass Details

Date: 22 May 2022
Orbit: 638 x 640 km, 98.1° (Epoch: 06 July)

Event Time Altitude Azimuth Distance (km) Brightness Sun altitude
Exits shadow 12:14:07 29° 23° (NNE) 1,172 3.9 -25.1°
Drops below altitude 10° 12:16:29 10° 5° (N) 2,021 5.4 -25.7°
Sets 12:18:45 0° 359° (N) 2,928 6.3 -26.2°
